| time (UTC) | temp F | wind direction | speed knots | gust knots | rain 1hr in | rain 24hr in | rain mn in | humidity % | barometer mb |
| 20260505094412 | 65 | 148 | 13.0 | 19.1 | 0.00 | 0.00 | 0.00 | 99 | 1024.9 |
| 20260505093908 | 65 | 127 | 10.4 | 15.6 | 0.00 | 0.00 | 0.00 | 99 | 1024.9 |
| 20260505093405 | 66 | 161 | 10.4 | 15.6 | 0.00 | 0.00 | 0.00 | 99 | 1024.9 |
| 20260505092902 | 66 | 154 | 9.6 | 16.5 | 0.00 | 0.00 | 0.00 | 99 | 1024.9 |
| 20260505092400 | 66 | 123 | 9.6 | 14.8 | 0.00 | 0.00 | 0.00 | 99 | 1024.9 |
| 20260505091857 | 66 | 149 | 9.6 | 19.1 | 0.00 | 0.00 | 0.00 | 99 | 1024.9 |
| 20260505091355 | 66 | 172 | 11.3 | 16.5 | 0.00 | 0.00 | 0.00 | 99 | 1024.9 |
| 20260505090853 | 66 | 157 | 9.6 | 14.8 | 0.00 | 0.00 | 0.00 | 99 | 1024.9 |
| 20260505090351 | 66 | 151 | 7.0 | 20.9 | 0.00 | 0.00 | 0.00 | 99 | 1024.9 |
| 20260505085848 | 66 | 134 | 8.7 | 13.9 | 0.00 | 0.00 | 0.00 | 99 | 1024.9 |
| 20260505085346 | 65 | 151 | 5.2 | 15.6 | 0.00 | 0.00 | 0.00 | 99 | 1024.9 |
| 20260505084843 | 65 | 156 | 10.4 | 15.6 | 0.00 | 0.00 | 0.00 | 99 | 1024.9 |
| 20260505084342 | 65 | 160 | 7.0 | 12.2 | 0.00 | 0.00 | 0.00 | 99 | 1025.2 |
| 20260505083839 | 66 | 182 | 5.2 | 13.0 | 0.00 | 0.00 | 0.00 | 99 | 1024.9 |
| 20260505083336 | 66 | 232 | 7.0 | 13.9 | 0.00 | 0.00 | 0.00 | 99 | 1024.9 |
| 20260505082832 | 66 | 140 | 11.3 | 13.9 | 0.00 | 0.00 | 0.00 | 99 | 1024.9 |
| 20260505082329 | 66 | 161 | 9.6 | 14.8 | 0.00 | 0.00 | 0.00 | 99 | 1024.9 |
| 20260505081825 | 66 | 148 | 4.3 | 14.8 | 0.00 | 0.00 | 0.00 | 99 | 1025.2 |
| 20260505081322 | 66 | 158 | 6.1 | 11.3 | 0.00 | 0.00 | 0.00 | 99 | 1025.2 |
| 20260505080819 | 66 | 155 | 6.1 | 9.6 | 0.00 | 0.00 | 0.00 | 99 | 1025.2 |
| 20260505080315 | 66 | 147 | 10.4 | 14.8 | 0.00 | 0.00 | 0.00 | 99 | 1025.2 |
| 20260505075810 | 66 | 134 | 11.3 | 16.5 | 0.00 | 0.00 | 0.00 | 99 | 1024.9 |
| 20260505075308 | 66 | 179 | 7.0 | 14.8 | 0.00 | 0.00 | 0.00 | 99 | 1024.9 |
| 20260505074805 | 66 | 148 | 9.6 | 13.9 | 0.00 | 0.00 | 0.00 | 99 | 1025.2 |
| 20260505074302 | 66 | 144 | 8.7 | 14.8 | 0.00 | 0.00 | 0.00 | 99 | 1024.9 |
| 20260505073759 | 66 | 152 | 8.7 | 18.2 | 0.00 | 0.00 | 0.00 | 99 | 1024.9 |
| 20260505073257 | 66 | 142 | 11.3 | 19.1 | 0.00 | 0.00 | 0.00 | 99 | 1024.9 |
| 20260505072754 | 66 | 108 | 11.3 | 13.9 | 0.00 | 0.00 | 0.00 | 99 | 1024.9 |
| 20260505072250 | 66 | 159 | 7.8 | 11.3 | 0.00 | 0.00 | 0.00 | 99 | 1024.9 |
| 20260505071746 | 66 | 168 | 6.1 | 14.8 | 0.00 | 0.00 | 0.00 | 99 | 1024.9 |
| 20260505071242 | 66 | 122 | 9.6 | 13.0 | 0.00 | 0.00 | 0.00 | 99 | 1024.9 |
| 20260505070740 | 66 | 174 | 6.1 | 13.0 | 0.00 | 0.00 | 0.00 | 99 | 1024.9 |
| 20260505070236 | 66 | 136 | 5.2 | 13.0 | 0.00 | 0.00 | 0.00 | 99 | 1024.9 |
| 20260505065732 | 66 | 143 | 7.8 | 13.0 | 0.00 | 0.00 | 0.00 | 99 | 1024.9 |
| 20260505065229 | 66 | 158 | 6.1 | 12.2 | 0.00 | 0.00 | 0.00 | 99 | 1024.9 |
| 20260505064726 | 66 | 166 | 3.5 | 11.3 | 0.00 | 0.00 | 0.00 | 99 | 1024.9 |
| 20260505064224 | 66 | 151 | 8.7 | 12.2 | 0.00 | 0.00 | 0.00 | 99 | 1024.9 |
| 20260505063721 | 66 | 129 | 13.0 | 15.6 | 0.00 | 0.00 | 0.00 | 99 | 1025.2 |
| 20260505063216 | 66 | 157 | 6.1 | 19.1 | 0.00 | 0.00 | 0.00 | 99 | 1025.2 |
| 20260505062713 | 66 | 135 | 4.3 | 11.3 | 0.00 | 0.00 | 0.00 | 99 | 1024.9 |
| 20260505062206 | 66 | 120 | 5.2 | 11.3 | 0.00 | 0.00 | 0.00 | 99 | 1025.2 |
| 20260505061702 | 66 | 173 | 7.0 | 12.2 | 0.00 | 0.00 | 0.00 | 99 | 1025.2 |
| 20260505061200 | 66 | 125 | 7.0 | 18.2 | 0.00 | 0.00 | 0.00 | 99 | 1025.2 |
| 20260505060657 | 66 | 159 | 4.3 | 13.0 | 0.00 | 0.00 | 0.00 | 99 | 1025.2 |
| 20260505060154 | 66 | 133 | 7.0 | 13.0 | 0.00 | 0.00 | 0.00 | 99 | 1025.2 |
| 20260505055649 | 66 | 145 | 6.1 | 12.2 | 0.00 | 0.00 | 0.00 | 99 | 1025.6 |
| 20260505055146 | 66 | 163 | 10.4 | 15.6 | 0.00 | 0.00 | 0.00 | 99 | 1024.9 |
| 20260505054644 | 66 | 169 | 7.0 | 20.0 | 0.00 | 0.00 | 0.00 | 99 | 1025.6 |
| 20260505054141 | 66 | 154 | 9.6 | 13.9 | 0.00 | 0.00 | 0.00 | 99 | 1025.2 |
| 20260505053639 | 66 | 167 | 8.7 | 11.3 | 0.00 | 0.00 | 0.00 | 99 | 1025.6 |
| 20260505053135 | 66 | 151 | 8.7 | 13.0 | 0.00 | 0.00 | 0.00 | 99 | 1025.6 |
| 20260505052632 | 67 | 151 | 5.2 | 13.0 | 0.00 | 0.00 | 0.00 | 99 | 1025.6 |
| 20260505052130 | 66 | 161 | 11.3 | 15.6 | 0.00 | 0.00 | 0.00 | 99 | 1025.6 |
| 20260505051626 | 66 | 158 | 7.8 | 15.6 | 0.00 | 0.00 | 0.00 | 99 | 1026.0 |
| 20260505051125 | 66 | 177 | 6.1 | 18.2 | 0.00 | 0.00 | 0.00 | 99 | 1026.0 |
| 20260505050622 | 66 | 162 | 7.8 | 13.9 | 0.00 | 0.00 | 0.00 | 99 | 1026.0 |
| 20260505050120 | 66 | 197 | 7.0 | 14.8 | 0.00 | 0.00 | 0.00 | 99 | 1026.0 |
| 20260505041550 | 66 | 151 | 4.3 | 14.8 | 0.00 | 0.00 | 0.00 | 99 | 1026.3 |
| 20260505041047 | 66 | 163 | 12.2 | 15.6 | 0.00 | 0.00 | 0.00 | 99 | 1026.3 |
| 20260505040544 | 66 | 241 | 4.3 | 12.2 | 0.00 | 0.00 | 0.00 | 99 | 1026.3 |
| 20260505040042 | 66 | 169 | 7.0 | 13.0 | 0.00 | 0.00 | 0.00 | 99 | 1026.7 |
| 20260505035537 | 66 | 167 | 10.4 | 14.8 | 0.00 | 0.00 | 0.00 | 99 | 1026.7 |
| 20260505035034 | 66 | 187 | 7.8 | 15.6 | 0.00 | 0.00 | 0.00 | 99 | 1026.7 |
| 20260505034531 | 67 | 173 | 7.8 | 12.2 | 0.00 | 0.00 | 0.00 | 99 | 1026.7 |
| 20260505034028 | 67 | 180 | 7.0 | 11.3 | 0.00 | 0.00 | 0.00 | 99 | 1026.7 |
| 20260505033525 | 67 | 196 | 7.8 | 12.2 | 0.00 | 0.00 | 0.00 | 98 | 1027.1 |
| 20260505033023 | 66 | 141 | 9.6 | 12.2 | 0.00 | 0.00 | 0.00 | 98 | 1026.7 |
| 20260505032520 | 66 | 162 | 6.1 | 13.9 | 0.00 | 0.00 | 0.00 | 98 | 1026.7 |
| 20260505032017 | 66 | 173 | 7.8 | 13.0 | 0.00 | 0.00 | 0.00 | 99 | 1027.1 |
| 20260505031514 | 67 | 134 | 9.6 | 14.8 | 0.00 | 0.00 | 0.00 | 99 | 1026.7 |
| 20260505031010 | 66 | 179 | 9.6 | 13.9 | 0.00 | 0.00 | 0.00 | 99 | 1027.1 |
| 20260505030507 | 67 | 149 | 7.0 | 12.2 | 0.00 | 0.00 | 0.00 | 98 | 1027.1 |
| 20260505030003 | 67 | 205 | 5.2 | 11.3 | 0.00 | 0.00 | 0.00 | 98 | 1026.7 |
| 20260505025459 | 67 | 164 | 8.7 | 12.2 | 0.00 | 0.00 | 0.00 | 98 | 1027.1 |
| 20260505024959 | 67 | 188 | 7.0 | 13.9 | 0.00 | 0.00 | 0.00 | 98 | 1027.1 |
| 20260505024455 | 67 | 161 | 6.1 | 12.2 | 0.00 | 0.00 | 0.00 | 98 | 1027.1 |
| 20260505023952 | 67 | 164 | 5.2 | 11.3 | 0.00 | 0.00 | 0.00 | 98 | 1026.7 |
| 20260505023449 | 67 | 194 | 7.8 | 11.3 | 0.00 | 0.00 | 0.00 | 98 | 1027.1 |
| 20260505022947 | 67 | 125 | 6.1 | 11.3 | 0.00 | 0.00 | 0.00 | 98 | 1026.7 |
| 20260505022444 | 67 | 136 | 7.8 | 13.9 | 0.00 | 0.00 | 0.00 | 98 | 1027.1 |
| 20260505021941 | 67 | 127 | 7.8 | 14.8 | 0.00 | 0.00 | 0.00 | 98 | 1026.7 |
| 20260505021437 | 67 | 167 | 7.8 | 12.2 | 0.00 | 0.00 | 0.00 | 98 | 1026.7 |
| 20260505020933 | 67 | 147 | 5.2 | 13.0 | 0.00 | 0.00 | 0.00 | 98 | 1026.7 |
| 20260505020428 | 67 | 135 | 7.8 | 12.2 | 0.00 | 0.00 | 0.00 | 97 | 1026.7 |
| 20260505015926 | 67 | 172 | 4.3 | 11.3 | 0.00 | 0.00 | 0.00 | 97 | 1026.7 |
| 20260505015423 | 67 | 161 | 6.1 | 8.7 | 0.00 | 0.00 | 0.00 | 97 | 1026.7 |
| 20260505014920 | 67 | 162 | 6.1 | 9.6 | 0.00 | 0.00 | 0.00 | 97 | 1026.7 |
| 20260505014416 | 67 | 131 | 5.2 | 8.7 | 0.00 | 0.00 | 0.00 | 97 | 1026.7 |
| 20260505013914 | 67 | 166 | 7.0 | 9.6 | 0.00 | 0.00 | 0.00 | 96 | 1026.7 |
| 20260505013410 | 67 | 154 | 2.6 | 8.7 | 0.00 | 0.00 | 0.00 | 96 | 1026.7 |
| 20260505012909 | 67 | 149 | 4.3 | 9.6 | 0.00 | 0.00 | 0.00 | 96 | 1026.7 |
| 20260505012406 | 67 | 170 | 4.3 | 11.3 | 0.00 | 0.00 | 0.00 | 96 | 1026.7 |
| 20260505011902 | 67 | 146 | 5.2 | 9.6 | 0.00 | 0.00 | 0.00 | 96 | 1026.7 |
| 20260505011359 | 67 | 158 | 6.1 | 7.8 | 0.00 | 0.00 | 0.00 | 96 | 1026.3 |
| 20260505010856 | 67 | 154 | 5.2 | 7.8 | 0.00 | 0.00 | 0.00 | 95 | 1026.3 |
| 20260505010351 | 67 | 161 | 9.6 | 11.3 | 0.00 | 0.00 | 0.00 | 95 | 1026.3 |
| 20260505005848 | 68 | 200 | 7.8 | 13.0 | 0.00 | 0.00 | 0.00 | 94 | 1026.0 |
| 20260505005344 | 67 | 168 | 5.2 | 13.0 | 0.00 | 0.00 | 0.00 | 94 | 1026.0 |
| 20260505004842 | 67 | 169 | 5.2 | 11.3 | 0.00 | 0.00 | 0.00 | 95 | 1026.0 |
| 20260505004338 | 68 | 164 | 7.8 | 13.9 | 0.00 | 0.00 | 0.00 | 95 | 1026.0 |
| 20260505003836 | 67 | 190 | 5.2 | 9.6 | 0.00 | 0.00 | 0.00 | 96 | 1025.6 |
| 20260505003333 | 67 | 161 | 5.2 | 9.6 | 0.00 | 0.00 | 0.00 | 98 | 1026.0 |
| 20260505002829 | 67 | 182 | 6.1 | 12.2 | 0.00 | 0.00 | 0.00 | 98 | 1026.0 |
| 20260505002326 | 68 | 203 | 6.1 | 13.0 | 0.00 | 0.00 | 0.00 | 98 | 1026.0 |
| 20260505001824 | 68 | 153 | 10.4 | 14.8 | 0.00 | 0.00 | 0.00 | 98 | 1026.0 |
| 20260505001321 | 67 | 167 | 7.8 | 14.8 | 0.00 | 0.00 | 0.00 | 98 | 1026.0 |
| 20260505000818 | 67 | 187 | 5.2 | 15.6 | 0.00 | 0.00 | 0.00 | 98 | 1026.0 |
| 20260505000316 | 68 | 187 | 6.1 | 15.6 | 0.00 | 0.00 | 0.00 | 99 | 1026.0 |
| 20260504235812 | 68 | 194 | 8.7 | 12.2 | 0.00 | 0.00 | 0.00 | 99 | 1026.0 |
| 20260504235309 | 68 | 150 | 7.0 | 13.9 | 0.00 | 0.00 | 0.00 | 98 | 1026.0 |
| 20260504234806 | 68 | 165 | 7.0 | 13.0 | 0.00 | 0.00 | 0.00 | 97 | 1026.0 |
| 20260504234304 | 68 | 135 | 7.8 | 12.2 | 0.00 | 0.00 | 0.00 | 97 | 1025.6 |
| 20260504233800 | 68 | 159 | 8.7 | 12.2 | 0.00 | 0.00 | 0.00 | 96 | 1026.0 |
| 20260504233255 | 68 | 169 | 4.3 | 8.7 | 0.00 | 0.00 | 0.00 | 96 | 1025.6 |
| 20260504232752 | 68 | 174 | 7.8 | 12.2 | 0.00 | 0.00 | 0.00 | 96 | 1026.0 |
| 20260504232250 | 68 | 198 | 7.0 | 11.3 | 0.00 | 0.00 | 0.00 | 97 | 1025.6 |
| 20260504231746 | 68 | 187 | 10.4 | 14.8 | 0.00 | 0.00 | 0.00 | 97 | 1025.6 |
| 20260504231243 | 68 | 225 | 8.7 | 15.6 | 0.00 | 0.00 | 0.00 | 97 | 1025.6 |
| 20260504230739 | 68 | 176 | 7.0 | 13.0 | 0.00 | 0.00 | 0.00 | 97 | 1025.6 |
| 20260504230237 | 68 | 189 | 9.6 | 14.8 | 0.00 | 0.00 | 0.00 | 97 | 1025.6 |
| 20260504225735 | 68 | 173 | 8.7 | 13.0 | 0.00 | 0.00 | 0.00 | 97 | 1025.2 |
| 20260504225231 | 68 | 167 | 9.6 | 14.8 | 0.00 | 0.00 | 0.00 | 96 | 1025.2 |
| 20260504224728 | 68 | 181 | 7.0 | 12.2 | 0.00 | 0.00 | 0.00 | 97 | 1025.6 |
| 20260504224226 | 69 | 176 | 5.2 | 13.0 | 0.00 | 0.00 | 0.00 | 97 | 1025.6 |
| 20260504223722 | 69 | 182 | 5.2 | 13.0 | 0.00 | 0.00 | 0.00 | 97 | 1025.6 |
| 20260504223217 | 69 | 191 | 11.3 | 13.0 | 0.00 | 0.00 | 0.00 | 97 | 1025.2 |
| 20260504222715 | 69 | 157 | 3.5 | 9.6 | 0.00 | 0.00 | 0.00 | 97 | 1025.2 |
| 20260504222211 | 69 | 202 | 7.8 | 9.6 | 0.00 | 0.00 | 0.00 | 96 | 1025.2 |
| 20260504221709 | 69 | 172 | 3.5 | 11.3 | 0.00 | 0.00 | 0.00 | 96 | 1025.2 |
| 20260504221206 | 69 | 163 | 6.1 | 8.7 | 0.00 | 0.00 | 0.00 | 96 | 1024.9 |
| 20260504220702 | 69 | 181 | 5.2 | 11.3 | 0.00 | 0.00 | 0.00 | 96 | 1025.2 |
| 20260504220200 | 69 | 172 | 6.1 | 12.2 | 0.00 | 0.00 | 0.00 | 96 | 1025.2 |
| 20260504215656 | 69 | 156 | 7.0 | 9.6 | 0.00 | 0.00 | 0.00 | 95 | 1024.9 |
| 20260504215154 | 69 | 160 | 2.6 | 12.2 | 0.00 | 0.00 | 0.00 | 95 | 1024.9 |
| 20260504214649 | 69 | 163 | 5.2 | 11.3 | 0.00 | 0.00 | 0.00 | 95 | 1024.9 |
| 20260504214146 | 70 | 156 | 9.6 | 14.8 | 0.00 | 0.00 | 0.00 | 94 | 1024.9 |
| 20260504213642 | 70 | 168 | 7.8 | 14.8 | 0.00 | 0.00 | 0.00 | 93 | 1024.9 |
| 20260504213139 | 70 | 215 | 7.0 | 9.6 | 0.00 | 0.00 | 0.00 | 94 | 1024.9 |
| 20260504212636 | 70 | 164 | 8.7 | 11.3 | 0.00 | 0.00 | 0.00 | 94 | 1024.9 |
| 20260504212132 | 70 | 154 | 7.0 | 12.2 | 0.00 | 0.00 | 0.00 | 94 | 1024.9 |
| 20260504211630 | 70 | 137 | 5.2 | 12.2 | 0.00 | 0.00 | 0.00 | 94 | 1024.5 |
| 20260504211126 | 70 | 146 | 5.2 | 8.7 | 0.00 | 0.00 | 0.00 | 94 | 1024.9 |
| 20260504210624 | 70 | 168 | 2.6 | 13.0 | 0.00 | 0.00 | 0.00 | 94 | 1024.9 |
| 20260504210120 | 71 | 94 | 0.0 | 12.2 | 0.00 | 0.00 | 0.00 | 93 | 1024.9 |
| 20260504205618 | 72 | 194 | 6.1 | 8.7 | 0.00 | 0.00 | 0.00 | 91 | 1024.9 |
| 20260504205116 | 71 | 145 | 4.3 | 13.0 | 0.00 | 0.00 | 0.00 | 93 | 1024.9 |
| 20260504204614 | 71 | 188 | 6.1 | 9.6 | 0.00 | 0.00 | 0.00 | 93 | 1024.5 |
| 20260504204113 | 71 | 154 | 9.6 | 13.9 | 0.00 | 0.00 | 0.00 | 92 | 1024.5 |
| 20260504203611 | 71 | 154 | 0.9 | 11.3 | 0.00 | 0.00 | 0.00 | 92 | 1024.9 |
| 20260504203108 | 72 | 146 | 4.3 | 8.7 | 0.00 | 0.00 | 0.00 | 91 | 1024.9 |
| 20260504202603 | 72 | 149 | 0.0 | 9.6 | 0.00 | 0.00 | 0.00 | 90 | 1024.9 |
| 20260504202100 | 73 | 179 | 0.0 | 3.5 | 0.00 | 0.00 | 0.00 | 89 | 1024.9 |
| 20260504201556 | 73 | 154 | 5.2 | 9.6 | 0.00 | 0.00 | 0.00 | 88 | 1024.9 |
| 20260504201055 | 72 | 172 | 6.1 | 7.8 | 0.00 | 0.00 | 0.00 | 89 | 1024.9 |
| 20260504200550 | 72 | 181 | 6.1 | 13.0 | 0.00 | 0.00 | 0.00 | 89 | 1024.9 |
| 20260504200048 | 72 | 91 | 6.1 | 11.3 | 0.00 | 0.00 | 0.00 | 91 | 1024.9 |
| 20260504195543 | 72 | 153 | 3.5 | 7.0 | 0.00 | 0.00 | 0.00 | 90 | 1024.9 |
| 20260504195040 | 73 | 165 | 10.4 | 13.0 | 0.00 | 0.00 | 0.00 | 88 | 1024.9 |
| 20260504194537 | 72 | 150 | 8.7 | 12.2 | 0.00 | 0.00 | 0.00 | 88 | 1024.9 |
| 20260504194032 | 72 | 161 | 4.3 | 12.2 | 0.00 | 0.00 | 0.00 | 90 | 1024.9 |
| 20260504193529 | 72 | 161 | 5.2 | 13.0 | 0.00 | 0.00 | 0.00 | 88 | 1024.9 |
| 20260504193028 | 72 | 173 | 7.8 | 16.5 | 0.00 | 0.00 | 0.00 | 89 | 1024.9 |
| 20260504192526 | 73 | 173 | 5.2 | 11.3 | 0.00 | 0.00 | 0.00 | 88 | 1025.2 |
| 20260504192024 | 72 | 147 | 3.5 | 12.2 | 0.00 | 0.00 | 0.00 | 88 | 1025.2 |
| 20260504191521 | 73 | 157 | 9.6 | 14.8 | 0.00 | 0.00 | 0.00 | 87 | 1024.9 |
| 20260504191017 | 73 | 168 | 4.3 | 8.7 | 0.00 | 0.00 | 0.00 | 88 | 1024.9 |
| 20260504190513 | 72 | 151 | 3.5 | 12.2 | 0.00 | 0.00 | 0.00 | 89 | 1024.9 |
| 20260504190009 | 72 | 166 | 3.5 | 11.3 | 0.00 | 0.00 | 0.00 | 88 | 1024.9 |
| 20260504185507 | 72 | 135 | 6.1 | 12.2 | 0.00 | 0.00 | 0.00 | 86 | 1024.9 |
| 20260504185003 | 72 | 165 | 7.8 | 11.3 | 0.00 | 0.00 | 0.00 | 86 | 1024.9 |
| 20260504184458 | 73 | 138 | 6.1 | 7.8 | 0.00 | 0.00 | 0.00 | 85 | 1025.2 |
| 20260504183954 | 73 | 118 | 7.8 | 15.6 | 0.00 | 0.00 | 0.00 | 85 | 1025.2 |
| 20260504183452 | 74 | 180 | 4.3 | 15.6 | 0.00 | 0.00 | 0.00 | 85 | 1025.2 |
| 20260504182949 | 73 | 155 | 6.1 | 13.9 | 0.00 | 0.00 | 0.00 | 85 | 1025.6 |
| 20260504182446 | 73 | 132 | 6.1 | 13.9 | 0.00 | 0.00 | 0.00 | 85 | 1025.2 |
| 20260504181944 | 73 | 140 | 6.1 | 9.6 | 0.00 | 0.00 | 0.00 | 84 | 1025.6 |
| 20260504181440 | 73 | 147 | 5.2 | 8.7 | 0.00 | 0.00 | 0.00 | 84 | 1025.6 |
| 20260504180939 | 73 | 135 | 3.5 | 11.3 | 0.00 | 0.00 | 0.00 | 85 | 1025.6 |
| 20260504180438 | 74 | 137 | 2.6 | 13.0 | 0.00 | 0.00 | 0.00 | 83 | 1025.6 |
| 20260504175935 | 74 | 41 | 4.3 | 12.2 | 0.00 | 0.00 | 0.00 | 83 | 1025.6 |
| 20260504175432 | 74 | 108 | 5.2 | 12.2 | 0.00 | 0.00 | 0.00 | 82 | 1025.6 |
| 20260504174930 | 73 | 201 | 9.6 | 12.2 | 0.00 | 0.00 | 0.00 | 82 | 1026.0 |
| 20260504174427 | 74 | 183 | 7.8 | 9.6 | 0.00 | 0.00 | 0.00 | 80 | 1026.0 |
| 20260504173925 | 74 | 121 | 6.1 | 7.8 | 0.00 | 0.00 | 0.00 | 80 | 1026.0 |
| 20260504173421 | 73 | 127 | 6.1 | 16.5 | 0.00 | 0.00 | 0.00 | 81 | 1026.0 |
| 20260504172919 | 73 | 177 | 8.7 | 15.6 | 0.00 | 0.00 | 0.00 | 81 | 1026.0 |
| 20260504172414 | 74 | 121 | 7.8 | 15.6 | 0.00 | 0.00 | 0.00 | 80 | 1026.0 |
| 20260504171911 | 74 | 176 | 6.1 | 9.6 | 0.00 | 0.00 | 0.00 | 79 | 1026.0 |
| 20260504171408 | 74 | 121 | 10.4 | 18.2 | 0.00 | 0.00 | 0.00 | 78 | 1026.0 |
| 20260504170905 | 74 | 128 | 2.6 | 9.6 | 0.00 | 0.00 | 0.00 | 80 | 1026.0 |
| 20260504170401 | 75 | 154 | 4.3 | 9.6 | 0.00 | 0.00 | 0.00 | 79 | 1026.3 |
| 20260504160320 | 73 | 124 | 9.6 | 15.6 | 0.00 | 0.00 | 0.00 | 80 | 1026.3 |
| 20260504150745 | 71 | 105 | 10.4 | 16.5 | 0.00 | 0.00 | 0.00 | 87 | 1026.7 |
| 20260504150242 | 71 | 140 | 9.6 | 14.8 | 0.00 | 0.00 | 0.00 | 88 | 1026.7 |
| 20260504141211 | 71 | 130 | 8.7 | 15.6 | 0.00 | 0.00 | 0.00 | 87 | 1026.7 |
| 20260504140708 | 71 | 118 | 16.5 | 21.7 | 0.00 | 0.00 | 0.00 | 87 | 1026.3 |
| 20260504140204 | 71 | 147 | 10.4 | 21.7 | 0.00 | 0.00 | 0.00 | 87 | 1026.3 |
| 20260504130632 | 70 | 159 | 7.0 | 20.9 | 0.00 | 0.00 | 0.00 | 89 | 1026.3 |
| 20260504130129 | 70 | 155 | 10.4 | 14.8 | 0.00 | 0.00 | 0.00 | 88 | 1026.3 |
| 20260504110520 | 67 | 144 | 3.5 | 9.6 | 0.00 | 0.00 | 0.00 | 96 | 1026.0 |
| 20260504100437 | 65 | 134 | 4.3 | 9.6 | 0.00 | 0.00 | 0.00 | 99 | 1025.6 |